FW4219 Weather Reports


time (UTC)temp
C
wind
direction
speed
KPH
gust
KPH
rain 1hr
cm
rain 24hr
cm
rain mn
cm
humidity
%
barometer
mb
20260906112521 21 45 0.0 3.2 0.00 0.00 0.00 100 1020.7
20260906111619 21 90 0.0 1.6 0.00 0.00 0.00 100 1020.9
20260906110718 21 90 0.0 0.0 0.00 0.00 0.00 100 1020.9
20260906102722 22 90 0.0 0.0 0.00 0.00 0.00 100 1020.2
20260906101818 22 90 0.0 4.8 0.00 0.00 0.00 100 1020.1
20260906100820 22 90 0.0 1.6 0.00 0.00 0.00 100 1020.2
20260906100719 22 71 1.6 4.8 0.00 0.00 0.00 100 1020.2
20260906095720 22 340 0.0 1.6 0.00 0.00 0.00 100 1020.0
20260906094720 22 22 0.0 0.0 0.00 0.00 0.00 100 1019.9
20260906093719 22 360 0.0 3.2 0.00 0.00 0.00 100 1019.9
20260906092720 22 34 0.0 8.0 0.00 0.00 0.00 100 1019.9
20260906092621 22 22 0.0 0.0 0.00 0.00 0.00 100 1019.9
20260906090720 22 90 0.0 1.6 0.00 0.00 0.00 100 1019.9
20260906085720 22 90 0.0 0.0 0.00 0.00 0.00 100 1019.9
20260906084719 22 88 0.0 3.2 0.00 0.00 0.00 100 1019.9
20260906083720 22 45 0.0 1.6 0.00 0.00 0.00 100 1019.9
20260906082719 22 67 0.0 0.0 0.00 0.00 0.00 100 1019.9
20260906081722 22 58 0.0 3.2 0.00 0.00 0.00 100 1019.9
20260906080721 22 90 0.0 0.0 0.00 0.00 0.00 100 1019.9
20260906075820 22 90 0.0 3.2 0.00 0.00 0.00 100 1020.1
20260906074818 22 360 0.0 0.0 0.00 0.00 0.00 100 1019.9
20260906073821 23 360 0.0 0.0 0.00 0.00 0.00 100 1019.9
20260906072820 23 90 0.0 3.2 0.00 0.00 0.00 100 1019.9
20260906071819 23 98 1.6 4.8 0.00 0.00 0.00 100 1020.2
20260906065919 22 112 1.6 6.4 0.00 0.00 0.00 100 1019.9
20260906064918 22 135 0.0 1.6 0.00 0.00 0.00 100 1020.2
20260906063919 22 24 0.0 4.8 0.00 0.00 0.00 100 1020.0
20260906062920 22 360 0.0 4.8 0.00 0.00 0.00 100 1020.2
20260906062018 22 360 1.6 3.2 0.00 0.00 0.00 100 1019.9
20260906061021 23 2 4.8 14.5 0.00 0.00 0.00 100 1020.0
20260906055119 22 20 0.0 4.8 0.00 0.00 0.00 100 1020.2
20260906054118 23 9 4.8 9.7 0.00 0.00 0.00 100 1019.9
20260906053120 22 30 1.6 6.4 0.00 0.00 0.00 100 1019.9
20260906051120 22 67 1.6 4.8 0.00 0.00 0.00 100 1019.6
20260906050119 22 56 3.2 11.3 0.00 0.00 0.00 100 1019.9
20260906045128 22 360 0.0 0.0 0.00 0.00 0.00 100 1019.8
20260906044227 22 360 0.0 3.2 0.00 0.00 0.00 100 1019.6
20260906044129 22 360 0.0 3.2 0.00 0.00 0.00 100 1019.6
20260906043227 22 83 1.6 4.8 0.00 0.00 0.00 100 1019.3
20260906042231 22 48 1.6 4.8 0.00 0.00 0.00 100 1019.2
20260906041229 22 56 1.6 4.8 0.00 0.00 0.00 100 1019.2
20260906040229 22 45 0.0 3.2 0.00 0.00 0.00 100 1019.2
20260906035127 22 34 0.0 6.4 0.00 0.00 0.00 100 1019.2
20260906034127 22 11 1.6 9.7 0.00 0.00 0.00 100 1019.2
20260906033127 22 39 1.6 6.4 0.00 0.00 0.00 100 1019.2
20260906031128 22 60 3.2 6.4 0.00 0.00 0.00 100 1019.2
20260906030127 23 67 0.0 3.2 0.00 0.00 0.00 100 1019.2
20260906025128 23 90 0.0 3.2 0.00 0.00 0.00 100 1019.2
20260906024129 23 19 3.2 11.3 0.00 0.00 0.00 100 1018.9
20260906023129 23 1 3.2 14.5 0.00 0.00 0.00 100 1018.9
20260906022128 23 56 1.6 4.8 0.00 0.00 0.00 100 1019.0
20260906021129 23 93 3.2 6.4 0.00 0.00 0.00 100 1019.2
20260906021029 23 64 1.6 4.8 0.00 0.00 0.00 100 1019.2
20260906020128 23 70 3.2 8.0 0.00 0.00 0.00 100 1019.2
20260906015128 23 3 4.8 9.7 0.00 0.00 0.00 100 1019.2
20260906014127 22 29 3.2 12.9 0.00 0.00 0.00 100 1019.2
20260906013128 22 72 1.6 9.7 0.00 0.00 0.00 100 1019.2
20260906011227 22 12 4.8 11.3 0.00 0.00 0.00 100 1018.9
20260906010229 22 20 3.2 9.7 0.00 0.00 0.00 100 1018.6
20260906010128 22 27 0.0 3.2 0.00 0.00 0.00 100 1018.8
20260906004226 22 16 4.8 12.9 0.00 0.00 0.00 100 1018.5
20260906003228 22 11 6.4 17.7 0.00 0.00 0.00 100 1018.2
20260906002327 22 31 6.4 16.1 0.00 0.00 0.00 100 1018.4
20260906002228 22 29 9.7 22.5 0.00 0.00 0.00 100 1018.3
20260906000227 22 25 4.8 16.1 0.00 0.00 0.00 100 1018.5
20260905235228 22 25 3.2 8.0 0.00 0.00 0.00 100 1018.5
20260905234127 22 25 4.8 17.7 0.00 0.00 0.00 100 1018.5
20260905233129 22 21 9.7 29.0 0.00 0.00 0.00 100 1018.5
20260905225127 24 3 14.5 25.7 0.00 0.00 0.00 100 1017.9
20260905224129 24 11 6.4 12.9 0.00 0.00 0.00 100 1018.2
20260905222128 25 7 11.3 20.9 0.00 0.00 0.00 100 1017.9
20260905221130 25 19 9.7 19.3 0.00 0.00 0.00 100 1017.9
20260905215144 26 12 8.0 14.5 0.00 0.00 0.00 100 1017.8
20260905214226 26 346 4.8 16.1 0.00 0.00 0.00 100 1017.5
20260905214128 26 8 3.2 9.7 0.00 0.00 0.00 100 1017.5
20260905213127 26 354 8.0 16.1 0.00 0.00 0.00 100 1017.5
20260905212127 26 4 8.0 17.7 0.00 0.00 0.00 100 1017.2
20260905211129 26 10 11.3 24.1 0.00 0.00 0.00 100 1017.2
20260905210128 26 295 1.6 3.2 0.00 0.00 0.00 100 1017.5
20260905205228 26 19 6.4 20.9 0.00 0.00 0.00 100 1017.5
20260905204231 26 18 1.6 9.7 0.00 0.00 0.00 100 1017.5
20260905203229 26 350 8.0 12.9 0.00 0.00 0.00 100 1017.5
20260905202227 26 339 6.4 12.9 0.00 0.00 0.00 100 1017.5
20260905201326 26 28 4.8 14.5 0.00 0.00 0.00 100 1017.5
20260905195329 26 357 9.7 17.7 0.00 0.00 0.00 100 1017.5
20260905194326 26 16 12.9 22.5 0.00 0.00 0.00 100 1017.5
20260905194230 26 47 4.8 16.1 0.00 0.00 0.00 100 1017.5
20260905193229 26 69 3.2 14.5 0.00 0.00 0.00 100 1017.5
20260905192228 26 29 1.6 6.4 0.00 0.00 0.00 100 1017.9
20260905191227 26 9 1.6 6.4 0.00 0.00 0.00 100 1017.9
20260905190227 26 19 3.2 9.7 0.00 0.00 0.00 100 1017.9
20260905185228 26 5 4.8 11.3 0.00 0.00 0.00 100 1017.9
20260905184229 26 74 3.2 9.7 0.00 0.00 0.00 100 1017.9
20260905183227 26 3 4.8 6.4 0.00 0.00 0.00 100 1017.9
20260905182228 26 3 3.2 6.4 0.00 0.00 0.00 100 1018.2
20260905181327 27 16 6.4 20.9 0.00 0.00 0.00 100 1017.9
20260905180329 27 356 12.9 22.5 0.00 0.00 0.00 100 1017.5
20260905175328 26 60 1.6 8.0 0.00 0.00 0.00 100 1017.9
20260905174327 26 357 1.6 8.0 0.00 0.00 0.00 100 1017.9
20260905173329 26 35 6.4 12.9 0.00 0.00 0.00 100 1017.9
20260905172328 26 54 1.6 6.4 0.00 0.00 0.00 100 1017.9
20260905171327 26 9 8.0 19.3 0.00 0.00 0.00 100 1017.9
20260905170328 26 360 8.0 14.5 0.00 0.00 0.00 100 1017.9
20260905164327 26 351 8.0 14.5 0.00 0.00 0.00 100 1017.9
20260905163328 27 348 8.0 14.5 0.00 0.00 0.00 100 1017.9
20260905161426 27 94 0.0 1.6 0.00 0.00 0.00 100 1017.9
20260905160428 27 4 8.0 17.7 0.00 0.00 0.00 100 1017.9
20260905155429 27 52 3.2 9.7 0.00 0.00 0.00 100 1017.5
20260905154427 26 11 8.0 16.1 0.00 0.00 0.00 100 1017.5
20260905153429 26 3 9.7 12.9 0.00 0.00 0.00 100 1017.5
20260905152427 27 352 9.7 14.5 0.00 0.00 0.00 100 1017.5
20260905151428 27 20 6.4 11.3 0.00 0.00 0.00 100 1017.2
20260905150426 27 20 4.8 12.9 0.00 0.00 0.00 100 1017.5
20260905145427 26 33 1.6 12.9 0.00 0.00 0.00 100 1017.2
20260905144428 26 16 0.0 4.8 0.00 0.00 0.00 100 1017.2
20260905143427 26 2 8.0 17.7 0.00 0.00 0.00 100 1017.2
20260905142428 26 341 11.3 20.9 0.00 0.00 0.00 100 1017.2
20260905141430 26 45 1.6 8.0 0.00 0.00 0.00 100 1017.2
20260905140528 26 5 11.3 17.7 0.00 0.00 0.00 100 1016.8
20260905135528 25 17 4.8 14.5 0.00 0.00 0.00 100 1016.8
20260905134527 25 19 3.2 9.7 0.00 0.00 0.00 100 1017.2
20260905132528 24 18 4.8 12.9 0.00 0.00 0.00 100 1017.2
20260905131529 24 11 8.0 17.7 0.00 0.00 0.00 100 1017.2
20260905125626 23 351 4.8 8.0 0.00 0.00 0.00 100 1016.8
20260905124627 23 9 3.2 8.0 0.00 0.00 0.00 100 1016.8
20260905123629 23 66 0.0 11.3 0.00 0.00 0.00 100 1016.4
20260905122728 23 340 1.6 6.4 0.00 0.00 0.00 100 1016.4
20260905120727 23 333 3.2 6.4 0.00 0.00 0.00 100 1016.4
20260905115727 23 13 1.6 11.3 0.00 0.00 0.00 100 1016.4
20260905114729 23 35 0.0 4.8 0.00 0.00 0.00 100 1016.1
20260905113726 23 360 0.0 1.6 0.00 0.00 0.00 100 1015.8